Location: Newark
(45.8667°N, 9.7333°E)
Time: 17:37:39
(UTC+00:00)

Transit 2A - All Passes

Search period start: 21 January 2020 00:00
Search period end: 31 January 2020 00:00
Orbit: 601 x 957 km, 66.7° (Epoch: 20 January)

Date Brightness Start Highest point End Pass type
(mag) Time Alt. Az. Time Alt. Az. Time Alt. Az.
21 Jan - 03:42:48 10° NNW 03:46:42 25° NE 03:50:50 10° E visible
21 Jan - 05:25:27 10° NW 05:30:04 54° WSW 05:35:09 10° SSE visible
21 Jan - 20:08:06 10° SSW 20:12:30 73° ESE 20:16:51 10° NE night (unlit)
21 Jan - 21:53:09 10° W 21:56:08 18° NW 21:59:08 10° N night (unlit)
22 Jan - 03:08:58 10° N 03:12:21 19° NE 03:15:56 10° E visible
22 Jan - 04:51:15 10° NW 04:55:59 79° WSW 05:01:12 10° SSE visible
22 Jan - 06:37:24 10° W 06:38:29 11° WSW 06:39:35 10° WSW daylight
22 Jan - 19:34:11 10° S 19:38:27 47° ESE 19:42:37 10° NE night (unlit)
22 Jan - 21:18:15 10° W 21:21:46 23° NW 21:25:20 10° N night (unlit)
23 Jan - 02:35:16 10° N 02:37:58 15° NE 02:40:46 10° ENE visible
23 Jan - 04:17:08 10° NNW 04:21:51 73° NE 04:27:03 10° SE visible
23 Jan - 06:01:34 10° WNW 06:04:34 16° WSW 06:07:44 10° SW visible
23 Jan - 19:00:31 10° S 19:04:25 31° ESE 19:08:15 10° NE visible
23 Jan - 20:43:32 10° WSW 20:47:29 32° NW 20:51:27 10° NNE night (unlit)
24 Jan - 02:01:49 10° N 02:03:31 12° NNE 02:05:15 10° NE visible
24 Jan - 03:43:05 10° NNW 03:47:41 51° NE 03:52:43 10° SE visible
24 Jan - 05:26:44 10° WNW 05:30:36 24° WSW 05:34:44 10° SSW visible
24 Jan - 18:27:09 10° SSE 18:30:27 21° ESE 18:33:41 10° ENE visible
24 Jan - 20:09:02 10° SW 20:13:15 46° NW 20:17:28 10° NNE night (unlit)
25 Jan - 03:09:06 10° NNW 03:13:28 37° NE 03:18:13 10° ESE visible
25 Jan - 04:52:14 10° NW 04:56:36 34° WSW 05:01:19 10° S visible
25 Jan - 17:54:20 10° SE 17:56:31 14° ESE 17:58:40 10° ENE visible
25 Jan - 19:34:42 10° SW 19:39:05 69° NW 19:43:25 10° NNE visible
25 Jan - 21:21:04 10° WNW 21:23:04 13° NNW 21:25:06 10° N night (unlit)
26 Jan - 02:35:10 10° NNW 02:39:12 27° NE 02:43:32 10° ESE visible
26 Jan - 04:17:54 10° NW 04:22:32 50° WSW 04:27:38 10° S visible
26 Jan - 19:00:33 10° SSW 19:04:57 80° ESE 19:09:19 10° NE visible
26 Jan - 20:45:48 10° W 20:48:39 17° NW 20:51:31 10° N night (unlit)
27 Jan - 02:01:19 10° N 02:04:53 21° NE 02:08:39 10° E visible
27 Jan - 03:43:41 10° NW 03:48:28 73° WSW 03:53:43 10° SSE visible
27 Jan - 18:26:36 10° SSW 18:30:52 52° ESE 18:35:06 10° NE visible
27 Jan - 20:10:51 10° W 20:14:17 22° NW 20:17:44 10° N visible
28 Jan - 01:27:34 10° N 01:30:30 16° NE 01:33:34 10° ENE night (unlit)
28 Jan - 03:09:33 10° NNW 03:14:20 79° ENE 03:19:37 10° SE visible
28 Jan - 04:54:10 10° WNW 04:57:01 15° WSW 04:59:59 10° SW visible
28 Jan - 17:52:53 10° S 17:56:50 34° ESE 18:00:46 10° NE visible
28 Jan - 19:36:07 10° WSW 19:39:58 30° NW 19:43:51 10° NNE visible
29 Jan - 00:54:00 10° N 00:56:03 13° NNE 00:58:11 10° ENE night (unlit)
29 Jan - 02:35:29 10° NNW 02:40:10 56° NE 02:45:19 10° SE visible
29 Jan - 04:19:16 10° WNW 04:23:03 22° WSW 04:27:06 10° SSW visible
29 Jan - 17:19:27 10° SSE 17:22:52 22° ESE 17:26:15 10° ENE visible
29 Jan - 19:01:34 10° WSW 19:05:43 42° NW 19:09:54 10° NNE visible
30 Jan - 02:01:29 10° NNW 02:05:58 40° NE 02:10:51 10° ESE night (unlit)
30 Jan - 03:44:43 10° NW 03:49:03 32° WSW 03:53:45 10° S visible
30 Jan - 16:46:29 10° SE 16:48:55 15° ESE 16:51:22 10° ENE daylight
30 Jan - 18:27:12 10° SW 18:31:31 63° NW 18:35:52 10° NNE visible
30 Jan - 20:13:48 10° WNW 20:15:36 12° NNW 20:17:25 10° N visible
